ZL1TQN Weather Reports


Display with metric or nautical units.
time (UTC)temp
F
wind
direction
speed
MPH
gust
MPH
rain 1hr
in
rain 24hr
in
rain mn
in
humidity
%
barometer
mb
20260905171006 48 165 1.0 3.0 0.00 0.00 0.00 87 1016.7
20260905170005 49 311 0.0 2.0 0.00 0.00 0.00 86 1016.6
20260905165505 49 317 1.0 2.0 0.00 0.00 0.00 86 1016.7
20260905164505 50 310 1.0 3.0 0.00 0.00 0.00 86 1016.7
20260905164005 50 184 1.0 3.0 0.00 0.00 0.00 86 1016.8
20260905163505 50 183 1.0 3.0 0.00 0.00 0.00 86 1016.9
20260905162505 49 250 1.0 3.0 0.00 0.00 0.00 87 1016.7
20260905162006 49 172 1.0 3.0 0.00 0.00 0.00 87 1016.7
20260905161005 49 180 1.0 2.0 0.00 0.00 0.00 86 1016.7
20260905160005 49 223 1.0 3.0 0.00 0.00 0.00 86 1016.7
20260905155505 49 156 1.0 3.0 0.00 0.00 0.00 86 1016.7
20260905155005 49 171 2.0 3.0 0.00 0.00 0.00 87 1016.8
20260905154505 49 221 1.0 3.0 0.00 0.00 0.00 86 1016.8
20260905154005 49 194 1.0 3.0 0.00 0.00 0.00 87 1016.7
20260905153505 49 170 1.0 3.0 0.00 0.00 0.00 87 1016.7
20260905153006 49 186 1.0 3.0 0.00 0.00 0.00 87 1016.7
20260905152505 49 173 1.0 3.0 0.00 0.00 0.00 87 1016.7
20260905151505 49 210 2.0 3.0 0.00 0.00 0.00 86 1016.7
20260905150005 49 232 1.0 3.0 0.00 0.00 0.00 85 1016.6
20260905145005 50 267 4.0 9.0 0.00 0.00 0.00 85 1016.6
20260905144505 50 272 4.0 10.0 0.00 0.00 0.00 85 1016.6
20260905144005 50 252 4.0 10.0 0.00 0.00 0.00 85 1016.6
20260905143505 49 252 3.0 6.0 0.00 0.00 0.00 85 1016.8
20260905143005 49 268 4.0 6.0 0.00 0.00 0.00 85 1016.9
20260905142505 49 257 3.0 6.0 0.00 0.00 0.00 85 1017.0
20260905142005 49 210 3.0 8.0 0.00 0.00 0.00 85 1017.1
20260905141505 49 257 3.0 9.0 0.00 0.00 0.00 85 1017.2
20260905141007 49 245 4.0 9.0 0.00 0.00 0.00 86 1017.3
20260905140005 48 250 3.0 6.0 0.00 0.00 0.00 86 1017.5
20260905135505 48 274 1.0 3.0 0.00 0.00 0.00 86 1017.6
20260905135005 48 261 2.0 3.0 0.00 0.00 0.00 86 1017.7
20260905134505 48 261 2.0 3.0 0.00 0.00 0.00 86 1017.7
20260905134005 48 261 2.0 3.0 0.00 0.00 0.00 86 1017.8
20260905133505 48 238 2.0 3.0 0.00 0.00 0.00 86 1017.8
20260905133005 48 260 2.0 3.0 0.00 0.00 0.00 86 1017.9
20260905132505 48 270 1.0 3.0 0.00 0.00 0.00 86 1017.9
20260905132005 48 283 0.0 7.0 0.00 0.00 0.00 86 1018.0
20260905131505 48 254 2.0 7.0 0.00 0.00 0.00 87 1018.2
20260905131005 47 219 2.0 5.0 0.00 0.00 0.00 88 1018.2
20260905130005 46 194 2.0 5.0 0.00 0.00 0.00 89 1018.1
20260905125506 45 187 2.0 5.0 0.00 0.00 0.00 91 1018.1
20260905125005 44 208 2.0 3.0 0.00 0.00 0.00 89 1018.2
20260905124505 45 183 1.0 3.0 0.00 0.00 0.00 89 1018.2
20260905124005 45 173 0.0 3.0 0.00 0.00 0.00 89 1018.3
20260905123005 44 159 1.0 3.0 0.00 0.00 0.00 87 1018.4
20260905122505 45 159 2.0 3.0 0.00 0.00 0.00 86 1018.3
20260905122004 46 173 1.0 2.0 0.00 0.00 0.00 87 1018.3
20260905121505 46 173 1.0 2.0 0.00 0.00 0.00 88 1018.3
20260905121005 46 174 1.0 3.0 0.00 0.00 0.00 88 1018.4
20260905120005 45 187 1.0 2.0 0.00 0.00 0.00 89 1018.3
20260905115505 45 173 1.0 2.0 0.00 0.00 0.00 89 1018.3
20260905115004 45 112 1.0 3.0 0.00 0.00 0.00 87 1018.4
20260905114507 45 112 2.0 3.0 0.00 0.00 0.00 87 1018.6
20260905113005 46 310 1.0 2.0 0.00 0.00 0.00 88 1018.3
20260905112504 46 326 1.0 2.0 0.00 0.00 0.00 88 1018.1
20260905112005 46 283 0.0 0.0 0.00 0.00 0.00 87 1018.0
20260905111005 46 157 0.0 0.0 0.00 0.00 0.00 86 1018.3
20260905110004 46 157 0.0 0.0 0.00 0.00 0.00 87 1018.3
20260905105504 46 157 0.0 1.0 0.00 0.00 0.00 86 1018.3
20260905104505 47 156 1.0 2.0 0.00 0.00 0.00 85 1018.3
20260905104004 47 157 1.0 2.0 0.00 0.00 0.00 85 1018.4
20260905103505 47 157 1.0 2.0 0.00 0.00 0.00 87 1018.4
20260905102505 48 157 1.0 3.0 0.00 0.00 0.00 83 1018.6
20260905101505 49 327 1.0 2.0 0.00 0.00 0.00 82 1018.3
20260905101005 49 303 1.0 3.0 0.00 0.00 0.00 82 1018.5
20260905100005 49 271 1.0 3.0 0.00 0.00 0.00 81 1018.4
20260905095505 50 305 2.0 5.0 0.00 0.00 0.00 81 1018.4
20260905095005 50 293 1.0 5.0 0.00 0.00 0.00 80 1018.5
20260905094004 50 315 1.0 5.0 0.00 0.00 0.00 79 1018.6
20260905093505 50 286 2.0 5.0 0.00 0.00 0.00 80 1018.6
20260905092505 50 285 1.0 5.0 0.00 0.00 0.00 79 1018.3
20260905092005 50 285 2.0 5.0 0.00 0.00 0.00 79 1018.2
20260905091505 51 293 2.0 3.0 0.00 0.00 0.00 78 1018.3
20260905091006 51 296 1.0 3.0 0.00 0.00 0.00 77 1018.5
20260905090005 52 320 1.0 3.0 0.00 0.00 0.00 76 1018.6
20260905085504 52 280 1.0 3.0 0.00 0.00 0.00 75 1018.5
20260905085004 52 291 1.0 6.0 0.00 0.00 0.00 75 1018.4
20260905084504 52 272 2.0 6.0 0.00 0.00 0.00 74 1018.3
20260905084004 53 276 3.0 9.0 0.00 0.00 0.00 74 1018.2
20260905083504 53 255 4.0 12.0 0.00 0.00 0.00 73 1018.0
20260905083004 53 261 5.0 12.0 0.00 0.00 0.00 73 1017.9
20260905082507 54 262 7.0 12.0 0.00 0.00 0.00 72 1017.8
20260905082006 54 250 6.0 9.0 0.00 0.00 0.00 72 1017.8
20260905081006 54 256 4.0 7.0 0.00 0.00 0.00 71 1017.8
20260905075507 54 271 5.0 9.0 0.00 0.00 0.00 70 1017.7
20260905075006 54 265 5.0 6.0 0.00 0.00 0.00 71 1017.6
20260905074506 54 274 1.0 7.0 0.00 0.00 0.00 70 1017.4
20260905073507 54 269 2.0 6.0 0.00 0.00 0.00 71 1017.2
20260905073006 54 263 3.0 6.0 0.00 0.00 0.00 71 1017.2
20260905072506 54 264 2.0 3.0 0.00 0.00 0.00 71 1017.2
20260905071507 55 200 2.0 5.0 0.00 0.00 0.00 70 1017.2
20260905071006 55 257 2.0 6.0 0.00 0.00 0.00 71 1017.2
20260905070007 54 294 1.0 3.0 0.00 0.00 0.00 71 1017.2
20260905065506 54 277 2.0 6.0 0.00 0.00 0.00 71 1017.0
20260905064506 55 272 3.0 6.0 0.00 0.00 0.00 71 1017.2
20260905064006 55 274 2.0 3.0 0.00 0.00 0.00 70 1017.2
20260905063506 55 276 1.0 3.0 0.00 0.00 0.00 69 1017.3
20260905063006 56 288 2.0 3.0 0.00 0.00 0.00 69 1017.3
20260905062506 56 270 2.0 3.0 0.00 0.00 0.00 68 1017.3
20260905062006 56 263 2.0 5.0 0.00 0.00 0.00 68 1017.2
20260905061506 57 256 2.0 7.0 0.00 0.00 0.00 67 1017.2
20260905060006 58 274 2.0 9.0 0.00 0.00 0.00 65 1017.0
20260905055006 58 272 3.0 10.0 0.00 0.00 0.00 63 1016.7
20260905054506 58 276 5.0 10.0 0.00 0.00 0.00 62 1016.7
20260905054006 59 271 5.0 13.0 0.00 0.00 0.00 61 1016.7
20260905053506 59 254 7.0 13.0 0.00 0.00 0.00 60 1016.7
20260905053006 59 273 7.0 17.0 0.00 0.00 0.00 59 1016.7
20260905052506 60 257 6.0 17.0 0.00 0.00 0.00 59 1016.7
20260905052006 60 242 9.0 17.0 0.00 0.00 0.00 57 1016.7
20260905051006 61 247 3.0 10.0 0.00 0.00 0.00 60 1016.7
20260905050007 62 222 3.0 7.0 0.00 0.00 0.00 61 1016.7
20260905045506 62 248 3.0 7.0 0.00 0.00 0.00 62 1016.7
20260905045006 62 200 2.0 16.0 0.00 0.00 0.00 62 1016.6
20260905044506 62 263 5.0 16.0 0.00 0.00 0.00 61 1016.5
20260905043506 62 265 5.0 12.0 0.00 0.00 0.00 60 1016.2
20260905043006 62 243 6.0 14.0 0.00 0.00 0.00 61 1016.1
20260905042506 62 257 7.0 20.0 0.00 0.00 0.00 62 1016.1
20260905042006 61 258 10.0 20.0 0.00 0.00 0.00 61 1016.1
20260905041506 61 247 10.0 20.0 0.00 0.00 0.00 60 1016.2
20260905041006 62 255 14.0 20.0 0.00 0.00 0.00 58 1016.2
20260905035506 63 255 6.0 13.0 0.00 0.00 0.00 57 1016.5
20260905035006 63 230 8.0 15.0 0.00 0.00 0.00 57 1016.5
20260905034506 63 238 6.0 15.0 0.00 0.00 0.00 58 1016.5
20260905033506 63 249 7.0 15.0 0.00 0.00 0.00 57 1016.5
20260905032506 63 256 10.0 20.0 0.00 0.00 0.00 56 1016.6
20260905032006 63 263 10.0 16.0 0.00 0.00 0.00 56 1016.7
20260905031506 64 245 7.0 17.0 0.00 0.00 0.00 56 1016.7
20260905030006 64 250 13.0 18.0 0.00 0.00 0.00 55 1016.5
20260905025505 64 259 7.0 14.0 0.00 0.00 0.00 56 1016.4
20260905025005 64 254 8.0 17.0 0.00 0.00 0.00 55 1016.3
20260905024505 64 215 6.0 17.0 0.00 0.00 0.00 57 1016.2
20260905024006 64 251 4.0 17.0 0.00 0.00 0.00 59 1016.3
20260905023506 63 258 10.0 17.0 0.00 0.00 0.00 59 1016.4
20260905023006 63 242 10.0 16.0 0.00 0.00 0.00 59 1016.5
20260905022506 63 228 7.0 14.0 0.00 0.00 0.00 60 1016.5
20260905022006 63 220 7.0 16.0 0.00 0.00 0.00 61 1016.5
20260905021506 63 253 6.0 16.0 0.00 0.00 0.00 62 1016.6
20260905021006 63 245 9.0 16.0 0.00 0.00 0.00 58 1016.5
20260905020006 63 248 8.0 21.0 0.00 0.00 0.00 59 1016.7
20260905015006 63 259 3.0 20.0 0.00 0.00 0.00 59 1016.7
20260905014506 63 253 10.0 20.0 0.00 0.00 0.00 57 1016.8
20260905014006 63 262 7.0 18.0 0.00 0.00 0.00 57 1016.9
20260905013505 63 250 8.0 20.0 0.00 0.00 0.00 58 1017.0
20260905013006 63 250 11.0 22.0 0.00 0.00 0.00 58 1016.9
20260905012506 63 252 9.0 22.0 0.00 0.00 0.00 59 1016.9
20260905012006 63 260 9.0 16.0 0.00 0.00 0.00 60 1017.0
20260905011506 63 271 8.0 16.0 0.00 0.00 0.00 62 1017.1
20260905011006 63 255 9.0 16.0 0.00 0.00 0.00 62 1017.2
20260905010006 62 245 5.0 17.0 0.00 0.00 0.00 62 1017.2
20260905005506 62 232 8.0 17.0 0.00 0.00 0.00 61 1017.2
20260905005005 62 188 5.0 17.0 0.00 0.00 0.00 61 1017.2
20260905004506 62 241 6.0 17.0 0.00 0.00 0.00 62 1017.2
20260905004006 62 261 6.0 12.0 0.00 0.00 0.00 61 1017.5
20260905003506 62 181 4.0 15.0 0.00 0.00 0.00 61 1017.5
20260905003006 62 255 5.0 15.0 0.00 0.00 0.00 63 1017.6
20260905002506 62 242 6.0 14.0 0.00 0.00 0.00 64 1017.7
20260905001506 61 257 10.0 18.0 0.00 0.00 0.00 63 1017.7
20260905001006 61 244 7.0 18.0 0.00 0.00 0.00 64 1017.7
20260904235507 61 259 5.0 14.0 0.00 0.00 0.00 65 1017.7
20260904235006 61 244 6.0 13.0 0.00 0.00 0.00 66 1017.7
20260904234505 61 218 3.0 14.0 0.00 0.00 0.00 67 1017.8
20260904234006 61 253 6.0 20.0 0.00 0.00 0.00 65 1017.8
20260904233505 61 248 10.0 20.0 0.00 0.00 0.00 65 1017.8
20260904233005 61 227 3.0 9.0 0.00 0.00 0.00 67 1018.0
20260904232005 60 249 7.0 13.0 0.00 0.00 0.00 66 1018.1
20260904231505 60 257 6.0 13.0 0.00 0.00 0.00 66 1018.2
20260904231005 60 179 5.0 12.0 0.00 0.00 0.00 67 1018.3
20260904230005 60 204 3.0 12.0 0.00 0.00 0.00 68 1018.3
20260904225505 59 226 5.0 12.0 0.00 0.00 0.00 68 1018.4
20260904225005 59 250 2.0 12.0 0.00 0.00 0.00 69 1018.3
20260904224506 59 177 6.0 12.0 0.00 0.00 0.00 67 1018.3
20260904224005 59 195 3.0 12.0 0.00 0.00 0.00 71 1018.3
20260904223506 58 211 5.0 13.0 0.00 0.00 0.00 69 1018.2
20260904223006 58 232 5.0 14.0 0.00 0.00 0.00 69 1018.2
20260904222506 58 270 5.0 14.0 0.00 0.00 0.00 70 1018.2
20260904221505 58 260 2.0 17.0 0.00 0.00 0.00 72 1018.1
20260904221006 58 239 6.0 18.0 0.00 0.00 0.00 71 1018.1
20260904215005 57 260 6.0 16.0 0.00 0.00 0.00 74 1018.2
20260904214506 57 241 6.0 14.0 0.00 0.00 0.00 74 1018.2
20260904213507 57 248 6.0 13.0 0.00 0.00 0.00 73 1018.2
20260904213006 56 180 6.0 13.0 0.00 0.00 0.00 73 1018.2
20260904212506 56 252 5.0 13.0 0.00 0.00 0.00 74 1018.2
20260904212006 56 217 5.0 12.0 0.00 0.00 0.00 75 1018.2
20260904211006 56 220 4.0 12.0 0.00 0.00 0.00 73 1018.3
20260904210006 55 234 4.0 12.0 0.00 0.00 0.00 74 1018.3
20260904205505 55 199 5.0 12.0 0.00 0.00 0.00 73 1018.2
20260904204505 55 230 3.0 8.0 0.00 0.00 0.00 75 1018.2
20260904204005 55 177 2.0 8.0 0.00 0.00 0.00 75 1018.2
20260904203506 54 177 3.0 10.0 0.00 0.00 0.00 74 1018.0
20260904202006 53 222 2.0 6.0 0.00 0.00 0.00 78 1017.8
20260904201506 53 199 1.0 6.0 0.00 0.00 0.00 79 1017.8
20260904201006 52 201 2.0 6.0 0.00 0.00 0.00 79 1017.8
20260904200005 51 208 2.0 9.0 0.00 0.00 0.00 80 1017.7
20260904195006 50 190 3.0 6.0 0.00 0.00 0.00 82 1017.5
20260904194505 50 196 2.0 5.0 0.00 0.00 0.00 83 1017.4
20260904193505 49 170 2.0 5.0 0.00 0.00 0.00 84 1017.2
20260904193005 48 174 3.0 5.0 0.00 0.00 0.00 86 1017.2
20260904192506 47 144 1.0 3.0 0.00 0.00 0.00 87 1017.1
20260904191005 46 133 1.0 3.0 0.00 0.00 0.00 87 1016.8
20260904190006 46 176 2.0 3.0 0.00 0.00 0.00 87 1016.7
20260904185506 46 165 2.0 3.0 0.00 0.00 0.00 80 1016.7
20260904185006 56 175 1.0 2.0 0.00 0.11 0.00 74 1018.0
20260904184005 56 165 0.0 2.0 0.00 0.11 0.00 74 1018.0
20260904183505 56 165 0.0 3.0 0.00 0.11 0.00 74 1018.0
20260904183005 56 165 2.0 3.0 0.00 0.11 0.00 74 1018.0
20260904182505 56 167 0.0 5.0 0.00 0.11 0.00 74 1018.0
20260904182005 56 303 2.0 5.0 0.00 0.11 0.00 74 1018.0
20260904181505 56 269 3.0 3.0 0.00 0.11 0.00 74 1018.0
20260904181005 56 273 2.0 3.0 0.00 0.11 0.00 74 1018.0
20260904180006 56 273 1.0 3.0 0.00 0.11 0.00 74 1018.0
20260904175505 56 278 1.0 3.0 0.00 0.11 0.00 74 1018.0
20260904175005 56 287 1.0 3.0 0.00 0.11 0.00 74 1018.0
20260904174506 56 304 1.0 3.0 0.00 0.11 0.00 74 1018.0
20260904174005 56 253 1.0 3.0 0.00 0.11 0.00 74 1018.0
20260904173505 56 247 2.0 3.0 0.00 0.11 0.00 74 1018.0
20260904173005 56 242 1.0 3.0 0.00 0.11 0.00 74 1018.0
20260904172505 56 254 1.0 3.0 0.00 0.11 0.00 74 1018.0
20260904172005 56 274 2.0 3.0 0.00 0.11 0.00 74 1018.0
20260904171505 56 264 2.0 3.0 0.00 0.11 0.00 74 1018.0